User: anonymous   Login
Location: ??????
(38.0677°N, 22.9870°E)
Time: 08:44:26
(UTC+00:00)
Language:

PAYLOAD A - Orbit

View from above orbital plane
View from above orbital plane
View from above satellite
View from above satellite

Ground track
Ground track

The orbit data is extracted from the following two-line orbital elements,

1 27840U 03031A   24196.90949069  .00000231  00000-0  84922-4 0  9991
2 27840  98.5332 164.2750 0096360 278.8796  80.1492 14.39391919104951
Epoch (UTC): 14 July 2024 21:49:39
Eccentricity: 0.0096360
inclination: 98.5332°
perigee height: 692 km
apogee height: 829 km
right ascension of ascending node: 164.2750°
argument of perigee: 278.8796°
revolutions per day: 14.39391919
mean anomaly at epoch: 80.1492°
orbit number at epoch: 10495

The dashed part of the orbit path shows where the satellite is in the earth's shadow,  

DLR